Location: Trebic
(49.2170°N, 15.8830°E)
Time: 05:26:37
(UTC+02:00)

Transit 2A - All Passes

Search period start: 22 July 2019 00:00
Search period end: 01 August 2019 00:00
Orbit: 594 x 964 km, 66.7° (Epoch: 21 July)

Date Brightness Start Highest point End Pass type
(mag) Time Alt. Az. Time Alt. Az. Time Alt. Az.
22 Jul - 01:01:52 10° NNW 01:06:32 27° NE 01:10:47 10° E visible
22 Jul - 02:45:00 10° NW 02:50:19 72° WSW 02:55:03 10° SSE visible
22 Jul - 04:31:12 10° W 04:32:20 11° W 04:33:27 10° WSW visible
22 Jul - 17:27:18 10° S 17:33:13 44° ESE 17:38:53 10° NE daylight
22 Jul - 19:10:28 10° WSW 19:16:31 48° NW 19:22:12 10° NNE daylight
22 Jul - 20:57:04 10° WNW 21:01:08 18° NNW 21:05:02 10° NNE daylight
22 Jul - 22:44:06 10° NNW 22:46:44 13° N 22:49:15 10° NNE visible
23 Jul - 00:27:48 10° NNW 00:32:07 22° NNE 00:36:05 10° E visible
23 Jul - 02:10:50 10° NW 02:16:13 83° NE 02:21:00 10° SE visible
23 Jul - 03:55:31 10° WNW 03:58:34 16° WSW 04:01:27 10° SW visible
23 Jul - 16:53:45 10° S 16:59:15 33° ESE 17:04:32 10° NE daylight
23 Jul - 18:36:04 10° SW 18:42:17 61° NW 18:48:08 10° NNE daylight
23 Jul - 20:22:08 10° WNW 20:26:39 21° NNW 20:30:57 10° NNE daylight
23 Jul - 22:09:31 10° NNW 22:12:08 13° N 22:14:38 10° NNE visible
23 Jul - 23:53:45 10° NNW 23:57:39 19° NNE 00:01:17 10° ENE visible
24 Jul - 01:36:43 10° NNW 01:42:03 61° NE 01:46:48 10° SE visible
24 Jul - 03:20:44 10° WNW 03:24:44 23° WSW 03:28:26 10° SSW visible
24 Jul - 16:20:26 10° SSE 16:25:19 24° ESE 16:30:03 10° ENE daylight
24 Jul - 18:01:47 10° SW 18:08:06 78° NW 18:14:02 10° NE daylight
24 Jul - 19:47:16 10° W 19:52:13 25° NNW 19:56:54 10° NNE daylight
24 Jul - 21:34:46 10° NW 21:37:31 13° N 21:40:10 10° NNE visible
24 Jul - 23:19:39 10° NNW 23:23:08 17° NNE 23:26:26 10° ENE visible
25 Jul - 01:02:38 10° NNW 01:07:49 45° NE 01:12:28 10° ESE visible
25 Jul - 02:46:15 10° NW 02:50:51 33° WSW 02:55:02 10° S visible
25 Jul - 15:47:29 10° SE 15:51:26 18° ESE 15:55:18 10° ENE daylight
25 Jul - 17:27:39 10° SSW 17:33:58 81° SE 17:39:55 10° NE daylight
25 Jul - 19:12:28 10° W 19:17:49 30° NW 19:22:51 10° NNE daylight
25 Jul - 20:59:53 10° NW 21:02:56 14° NNW 21:05:52 10° NNE daylight
25 Jul - 22:45:30 10° NNW 22:48:36 15° NNE 22:51:32 10° NE visible
26 Jul - 00:28:34 10° NNW 00:33:31 35° NE 00:38:01 10° ESE visible
26 Jul - 02:11:54 10° NW 02:16:54 47° WSW 02:21:23 10° S visible
26 Jul - 15:15:15 10° SE 15:17:38 12° ESE 15:19:58 10° E daylight
26 Jul - 16:53:40 10° SSW 16:59:53 62° ESE 17:05:45 10° NE daylight
26 Jul - 18:37:48 10° WSW 18:43:29 36° NW 18:48:49 10° NNE daylight
26 Jul - 20:24:56 10° NW 20:28:23 16° NNW 20:31:40 10° NNE daylight
26 Jul - 22:11:16 10° NNW 22:14:02 14° N 22:16:40 10° NE visible
26 Jul - 23:54:31 10° NNW 23:59:10 28° NE 00:03:25 10° E visible
27 Jul - 01:37:40 10° NW 01:42:53 67° WSW 01:47:32 10° SSE visible
27 Jul - 16:19:52 10° S 16:25:51 46° ESE 16:31:30 10° NE daylight
27 Jul - 18:03:13 10° WSW 18:09:11 45° NW 18:14:46 10° NNE daylight
27 Jul - 19:49:57 10° WNW 19:53:50 17° NNW 19:57:34 10° NNE daylight
27 Jul - 21:36:54 10° NNW 21:39:26 13° N 21:41:52 10° NNE visible
27 Jul - 23:20:28 10° NNW 23:24:46 23° NNE 23:28:44 10° E visible
28 Jul - 01:03:30 10° NW 01:08:48 88° ENE 01:13:31 10° SE visible
28 Jul - 02:48:24 10° WNW 02:51:04 15° WSW 02:53:37 10° SW visible
28 Jul - 15:46:16 10° S 15:51:51 34° ESE 15:57:11 10° NE daylight
28 Jul - 17:28:47 10° SW 17:34:57 57° NW 17:40:42 10° NNE daylight
28 Jul - 19:15:00 10° WNW 19:19:21 20° NNW 19:23:29 10° NNE daylight
28 Jul - 21:02:23 10° NNW 21:04:50 13° N 21:07:12 10° NNE daylight
28 Jul - 22:46:25 10° NNW 22:50:19 19° NNE 22:53:57 10° ENE visible
29 Jul - 00:29:23 10° NNW 00:34:39 65° NE 00:39:21 10° SE visible
29 Jul - 02:13:30 10° WNW 02:17:16 21° WSW 02:20:45 10° SSW visible
29 Jul - 15:12:53 10° SSE 15:17:55 26° ESE 15:22:44 10° ENE daylight
29 Jul - 16:54:28 10° SW 17:00:45 74° NW 17:06:37 10° NNE daylight
29 Jul - 18:40:06 10° W 18:44:55 24° NNW 18:49:25 10° NNE daylight
29 Jul - 20:27:39 10° NNW 20:30:14 13° N 20:32:43 10° NNE daylight
29 Jul - 22:12:20 10° NNW 22:15:49 17° NNE 22:19:05 10° ENE visible
29 Jul - 23:55:17 10° NNW 00:00:26 48° NE 00:05:03 10° ESE visible
30 Jul - 01:38:58 10° NW 01:43:22 30° WSW 01:47:26 10° S visible
30 Jul - 14:39:52 10° SSE 14:44:01 19° ESE 14:48:03 10° ENE daylight
30 Jul - 16:20:18 10° SSW 16:26:36 86° SE 16:32:30 10° NE daylight
30 Jul - 18:05:17 10° W 18:10:30 28° NW 18:15:23 10° NNE daylight
30 Jul - 19:52:47 10° NW 19:55:39 14° N 19:58:24 10° NNE daylight
30 Jul - 21:38:13 10° NNW 21:41:17 15° NNE 21:44:12 10° NE visible
30 Jul - 23:21:12 10° NNW 23:26:09 36° NE 23:30:36 10° ESE visible
31 Jul - 01:04:35 10° NW 01:09:26 43° WSW 01:13:50 10° S visible
31 Jul - 14:07:25 10° SE 14:10:11 13° ESE 14:12:53 10° ENE daylight
31 Jul - 15:46:18 10° SSW 15:52:31 66° ESE 15:58:20 10° NE daylight
31 Jul - 17:30:35 10° WSW 17:36:09 34° NW 17:41:21 10° NNE daylight
31 Jul - 19:17:49 10° NW 19:21:05 15° NNW 19:24:12 10° NNE daylight
31 Jul - 21:04:01 10° NNW 21:06:44 13° N 21:09:18 10° NE daylight
31 Jul - 22:47:10 10° NNW 22:51:49 29° NE 22:56:03 10° E visible
